Tampa, FL

10:50 AM EST on February 07, 2016 (GMT -0500)
Vandenberg

Weather History for KVDF - October, 2012

Change the Weather History Date:

Sunday, October 14, 2012

  Actual Average (KTPA) Record (KTPA)
Temperature  
Mean Temperature 76 °F 77 °F  
Max Temperature 89 °F 85 °F 92 °F (1989)
Min Temperature 62 °F 69 °F 48 °F (1977)
Degree Days  
Heating Degree Days 0 0  
Month to date heating degree days 0  
Since 1 July heating degree days 0  
Cooling Degree Days 10 12  
Month to date cooling degree days 185  
Year to date cooling degree days 3201  
Growing Degree Days 26 (Base 50)    
Moisture  
Dew Point 66 °F    
Average Humidity 74    
Maximum Humidity 94    
Minimum Humidity 46    
Precipitation  
Precipitation 0.00 in 0.07 in 1.82 in (1938)
Month to date precipitation 1.29  
Year to date precipitation 41.31  
Sea Level Pressure  
Sea Level Pressure 30.06 in    
Wind  
Wind Speed 2 mph (ENE)    
Max Wind Speed 9 mph    
Max Gust Speed 16 mph    
Visibility 10 miles    
Events      
T = Trace of Precipitation, MM = Missing Value Source: NWS Daily Summary

Daily Weather History Graph

Daily Weather History Graph

Search for Another Location

Airport or City:

Trip Planner

Search our weather history database for the weather conditions in past years. The results will help you decide how hot, cold, wet, or windy it might be!

Date:

Astronomy

Oct. 14, 2012 Rise Set
Actual Time 7:29 AM EDT 7:00 PM EDT
Civil Twilight 7:05 AM EDT 7:24 PM EDT
Nautical Twilight 6:38 AM EDT 7:51 PM EDT
Astronomical Twilight 6:11 AM EDT 8:18 PM EDT
Moon 6:28 AM EDT (10/14) 6:20 PM EDT (10/14)
Length of Visible Light 12h 18m
Length of Day
11h 31m
Waning Crescent, 1% of the Moon is Illuminated
Oct 14
Waning Crescent
Oct 15
New
Oct 21
First Quarter
Oct 29
Full
Nov 6
Last Quarter

Hourly Weather History & Observations

Time (EDT) Temp. Heat Index Dew Point Humidity Pressure Visibility Wind Dir Wind Speed Gust Speed Precip Events Conditions
12:15 AM 69.8 °F - 64.4 °F 83% 30.14 in 10.0 mi Calm Calm - N/A   Overcast
12:35 AM 69.8 °F - 64.4 °F 83% 30.13 in 10.0 mi NNE 3.5 mph - N/A   Overcast
1:15 AM 69.8 °F - 64.4 °F 83% 30.13 in 10.0 mi Calm Calm - N/A   Overcast
1:35 AM 69.8 °F - 64.4 °F 83% 30.13 in 10.0 mi Calm Calm - N/A   Scattered Clouds
1:55 AM 69.8 °F - 64.4 °F 83% 30.12 in 10.0 mi Calm Calm - N/A   Clear
2:15 AM 68.0 °F - 62.6 °F 83% 30.12 in 10.0 mi Calm Calm - N/A   Clear
2:35 AM 68.0 °F - 62.6 °F 83% 30.11 in 10.0 mi Calm Calm - N/A   Clear
2:55 AM 66.2 °F - 62.6 °F 88% 30.10 in 10.0 mi Calm Calm - N/A   Clear
3:15 AM 66.2 °F - 62.6 °F 88% 30.10 in 10.0 mi Calm Calm - N/A   Clear
3:35 AM 64.4 °F - 62.6 °F 94% 30.10 in 10.0 mi NNE 3.5 mph - N/A   Clear
3:55 AM 64.4 °F - 62.6 °F 94% 30.09 in 10.0 mi NNE 3.5 mph - N/A   Clear
4:15 AM 64.4 °F - 60.8 °F 88% 30.08 in 10.0 mi Calm Calm - N/A   Clear
4:35 AM 64.4 °F - 60.8 °F 88% 30.08 in 10.0 mi Calm Calm - N/A   Clear
4:55 AM 62.6 °F - 60.8 °F 94% 30.08 in 10.0 mi Calm Calm - N/A   Clear
5:15 AM 62.6 °F - 60.8 °F 94% 30.08 in 10.0 mi Calm Calm - N/A   Clear
5:35 AM 62.6 °F - 60.8 °F 94% 30.08 in 7.0 mi North 3.5 mph - N/A   Clear
5:55 AM 62.6 °F - 60.8 °F 94% 30.09 in 7.0 mi Calm Calm - N/A   Clear
6:15 AM 62.6 °F - 60.8 °F 94% 30.09 in 7.0 mi Calm Calm - N/A   Clear
6:35 AM 62.6 °F - 60.8 °F 94% 30.09 in 7.0 mi Calm Calm - N/A   Clear
6:55 AM 62.6 °F - 60.8 °F 94% 30.09 in 7.0 mi Calm Calm - N/A   Clear
7:15 AM 62.6 °F - 60.8 °F 94% 30.09 in 7.0 mi Calm Calm - N/A   Clear
7:35 AM 62.6 °F - 60.8 °F 94% 30.09 in 7.0 mi Calm Calm - N/A   Clear
7:55 AM 62.6 °F - 60.8 °F 94% 30.09 in 7.0 mi Calm Calm - N/A   Clear
8:15 AM 62.6 °F - 60.8 °F 94% 30.10 in 7.0 mi Calm Calm - N/A   Scattered Clouds
8:35 AM 64.4 °F - 62.6 °F 94% 30.10 in 7.0 mi Calm Calm - N/A   Scattered Clouds
8:55 AM 68.0 °F - 64.4 °F 88% 30.11 in 10.0 mi NE 3.5 mph - N/A   Clear
9:15 AM 73.4 °F - 66.2 °F 78% 30.11 in 10.0 mi ENE 6.9 mph - N/A   Clear
9:35 AM 77.0 °F - 68.0 °F 74% 30.11 in 10.0 mi ENE 4.6 mph - N/A   Clear
9:55 AM 78.8 °F - 68.0 °F 69% 30.11 in 10.0 mi NE 4.6 mph - N/A   Clear
10:15 AM 80.6 °F 83.2 °F 68.0 °F 65% 30.11 in 10.0 mi East 6.9 mph - N/A   Clear
10:35 AM 82.4 °F 85.4 °F 68.0 °F 62% 30.11 in 10.0 mi East 6.9 mph - N/A   Clear
10:55 AM 82.4 °F 85.4 °F 68.0 °F 62% 30.11 in 10.0 mi East 8.1 mph - N/A   Clear
11:15 AM 82.4 °F 85.4 °F 68.0 °F 62% 30.11 in 10.0 mi East 6.9 mph - N/A   Clear
11:35 AM 86.0 °F 90.4 °F 69.8 °F 58% 30.11 in 10.0 mi ESE 4.6 mph - N/A   Scattered Clouds
11:55 AM 86.0 °F 89.4 °F 68.0 °F 55% 30.10 in 10.0 mi East 6.9 mph - N/A   Scattered Clouds
12:15 PM 86.0 °F 89.4 °F 68.0 °F 55% 30.09 in 10.0 mi East 8.1 mph - N/A   Scattered Clouds
12:35 PM 87.8 °F 91.4 °F 68.0 °F 52% 30.08 in 10.0 mi East 8.1 mph - N/A   Scattered Clouds
12:55 PM 87.8 °F 91.4 °F 68.0 °F 52% 30.07 in 10.0 mi East 8.1 mph - N/A   Scattered Clouds
1:15 PM 89.6 °F 93.4 °F 68.0 °F 49% 30.06 in 10.0 mi ESE 6.9 mph 16.1 mph N/A   Clear
1:35 PM 89.6 °F 93.4 °F 68.0 °F 49% 30.06 in 10.0 mi East 3.5 mph - N/A   Scattered Clouds
1:55 PM 89.6 °F 93.4 °F 68.0 °F 49% 30.05 in 10.0 mi ENE 9.2 mph 16.1 mph N/A   Scattered Clouds
2:15 PM 87.8 °F 91.4 °F 68.0 °F 52% 30.04 in 10.0 mi East 5.8 mph - N/A   Scattered Clouds
2:35 PM 87.8 °F 91.4 °F 68.0 °F 52% 30.04 in 10.0 mi ENE 5.8 mph - N/A   Mostly Cloudy
2:55 PM 89.6 °F 93.4 °F 68.0 °F 49% 30.03 in 10.0 mi East 5.8 mph - N/A   Scattered Clouds
3:15 PM 89.6 °F 93.4 °F 68.0 °F 49% 30.03 in 10.0 mi NE 3.5 mph - N/A   Clear
3:55 PM 87.8 °F 90.4 °F 66.2 °F 49% 30.02 in 10.0 mi ENE 9.2 mph - N/A   Mostly Cloudy
4:15 PM 87.8 °F 90.4 °F 66.2 °F 49% 30.01 in 10.0 mi East 4.6 mph - N/A   Overcast
4:35 PM 89.6 °F 93.4 °F 68.0 °F 49% 30.01 in 10.0 mi East 3.5 mph - N/A   Overcast
4:55 PM 87.8 °F 89.4 °F 64.4 °F 46% 30.01 in 10.0 mi ENE 5.8 mph - N/A   Mostly Cloudy
5:15 PM 87.8 °F 89.4 °F 64.4 °F 46% 30.01 in 10.0 mi ENE 5.8 mph - N/A   Mostly Cloudy
5:35 PM 87.8 °F 91.4 °F 68.0 °F 52% 30.01 in 10.0 mi ENE 5.8 mph - N/A   Overcast
5:55 PM 86.0 °F 89.4 °F 68.0 °F 55% 30.00 in 10.0 mi ENE 4.6 mph - N/A   Overcast
6:15 PM 86.0 °F 89.4 °F 68.0 °F 55% 30.00 in 10.0 mi Calm Calm - N/A   Overcast
6:35 PM 82.4 °F 86.3 °F 69.8 °F 66% 30.00 in 10.0 mi Calm Calm - N/A   Overcast
6:55 PM 80.6 °F 83.9 °F 69.8 °F 70% 30.01 in 10.0 mi Calm Calm - N/A   Overcast
7:15 PM 78.8 °F - 71.6 °F 78% 30.01 in 10.0 mi North 3.5 mph - N/A   Overcast
7:35 PM 78.8 °F - 69.8 °F 74% 30.01 in 10.0 mi NE 3.5 mph - N/A   Scattered Clouds
7:55 PM 78.8 °F - 68.0 °F 69% 30.01 in 10.0 mi Calm Calm - N/A   Clear
8:15 PM 78.8 °F - 69.8 °F 74% 30.01 in 10.0 mi Calm Calm - N/A   Clear
8:35 PM 77.0 °F - 68.0 °F 74% 30.01 in 10.0 mi East 3.5 mph - N/A   Clear
8:55 PM 77.0 °F - 68.0 °F 74% 30.01 in 10.0 mi East 4.6 mph - N/A   Clear
9:15 PM 77.0 °F - 68.0 °F 74% 30.01 in 10.0 mi ENE 3.5 mph - N/A   Clear
9:35 PM 75.2 °F - 68.0 °F 78% 30.02 in 10.0 mi East 4.6 mph - N/A   Clear
9:55 PM 73.4 °F - 68.0 °F 83% 30.02 in 10.0 mi Calm Calm - N/A   Clear
10:15 PM 73.4 °F - 68.0 °F 83% 30.02 in 10.0 mi Calm Calm - N/A   Clear
10:35 PM 71.6 °F - 66.2 °F 83% 30.02 in 10.0 mi Calm Calm - N/A   Clear
10:55 PM 69.8 °F - 66.2 °F 88% 30.02 in 10.0 mi Calm Calm - N/A   Clear
11:15 PM 69.8 °F - 66.2 °F 88% 30.02 in 10.0 mi Calm Calm - N/A   Clear
11:35 PM 69.8 °F - 64.4 °F 83% 30.02 in 10.0 mi Calm Calm - N/A   Clear
11:55 PM 68.0 °F - 64.4 °F 88% 30.01 in 10.0 mi Calm Calm - N/A   Clear